[TLELIST] Archives

 

[TLELIST] Current TLEs

August 21st 2024 PST

HST 1 20580U 90037B 24233.47591758 .00011572 00000-0 53121-3 0 9995 2 20580 28.4681 274.1027 0002301 32.9353 327.1383 15.18817322686814 ISS (ZARYA) 1 25544U 98067A 24234.33892355 .00029655 00000-0 51607-3 0 9992 2 25544 51.6414 352.5483 0005315 226.6605 227.1975 15.50510042468659 CXO 1 25867U 99040B 24236.61953662 .00000805 00000-0 00000+0 0 9997 2 25867 42.5803 148.1717 8823685 300.1910 0.7997 0.37807121 25979 ...Continue Reading

[TLELIST] Current TLEs

August 21st 2024 PST

HST 1 20580U 90037B 24233.47591758 .00011572 00000-0 53121-3 0 9995 2 20580 28.4681 274.1027 0002301 32.9353 327.1383 15.18817322686814 ISS (ZARYA) 1 25544U 98067A 24234.33892355 .00029655 00000-0 51607-3 0 9992 2 25544 51.6414 352.5483 0005315 226.6605 227.1975 15.50510042468659 CXO 1 25867U 99040B 24236.61953662 .00000805 00000-0 00000+0 0 9997 2 25867 42.5803 148.1717 8823685 300.1910 0.7997 0.37807121 25979 ...Continue Reading

[TLELIST] Current TLEs

August 20th 2024 PST

HST 1 20580U 90037B 24233.21307935 .00011295 00000-0 51837-3 0 9993 2 20580 28.4680 275.8667 0002292 30.1531 329.9194 15.18811782687037 ISS (ZARYA) 1 25544U 98067A 24233.37243774 .00027182 00000-0 47491-3 0 9999 2 25544 51.6409 357.3421 0005186 223.4237 232.2036 15.50447391468505 CXO 1 25867U 99040B 24233.97649026 .00000937 00000-0 00000-0 0 9996 2 25867 42.4946 148.4625 8822359 300.0007 0.9696 0.37803797 14803 ...Continue Reading

[TLELIST] Current TLEs

August 20th 2024 PST

HST 1 20580U 90037B 24233.21307935 .00011295 00000-0 51837-3 0 9993 2 20580 28.4680 275.8667 0002292 30.1531 329.9194 15.18811782687037 ISS (ZARYA) 1 25544U 98067A 24233.37243774 .00027182 00000-0 47491-3 0 9999 2 25544 51.6409 357.3421 0005186 223.4237 232.2036 15.50447391468505 CXO 1 25867U 99040B 24233.97649026 .00000937 00000-0 00000-0 0 9996 2 25867 42.4946 148.4625 8822359 300.0007 0.9696 0.37803797 14803 ...Continue Reading

[TLELIST] Current TLEs

August 19th 2024 PST

HST 1 20580U 90037B 24231.50460653 .00012942 00000-0 59583-3 0 9996 2 20580 28.4686 287.3327 0002176 11.3734 348.6908 15.18774127686515 ISS (ZARYA) 1 25544U 98067A 24232.40625104 .00024453 00000-0 42899-3 0 9998 2 25544 51.6412 2.1325 0005118 219.2686 240.0106 15.50392803468358 CXO 1 25867U 99040B 24233.97649026 .00000937 00000-0 00000-0 0 9996 2 25867 42.4946 148.4625 8822359 300.0007 0.9696 0.37803797 14803 ...Continue Reading

[TLELIST] Current TLEs

August 19th 2024 PST

HST 1 20580U 90037B 24231.50460653 .00012942 00000-0 59583-3 0 9996 2 20580 28.4686 287.3327 0002176 11.3734 348.6908 15.18774127686515 ISS (ZARYA) 1 25544U 98067A 24232.40625104 .00024453 00000-0 42899-3 0 9998 2 25544 51.6412 2.1325 0005118 219.2686 240.0106 15.50392803468358 CXO 1 25867U 99040B 24233.97649026 .00000937 00000-0 00000-0 0 9996 2 25867 42.4946 148.4625 8822359 300.0007 0.9696 0.37803797 14803 ...Continue Reading

[TLELIST] Current TLEs

August 19th 2024 PST

HST 1 20580U 90037B 24231.50460653 .00012942 00000-0 59583-3 0 9996 2 20580 28.4686 287.3327 0002176 11.3734 348.6908 15.18774127686515 ISS (ZARYA) 1 25544U 98067A 24232.40625104 .00024453 00000-0 42899-3 0 9998 2 25544 51.6412 2.1325 0005118 219.2686 240.0106 15.50392803468358 CXO 1 25867U 99040B 24233.97649026 .00000937 00000-0 00000-0 0 9996 2 25867 42.4946 148.4625 8822359 300.0007 0.9696 0.37803797 14803 ...Continue Reading

[TLELIST] Current TLEs

August 19th 2024 PST

HST 1 20580U 90037B 24231.50460653 .00012942 00000-0 59583-3 0 9996 2 20580 28.4686 287.3327 0002176 11.3734 348.6908 15.18774127686515 ISS (ZARYA) 1 25544U 98067A 24232.40625104 .00024453 00000-0 42899-3 0 9998 2 25544 51.6412 2.1325 0005118 219.2686 240.0106 15.50392803468358 CXO 1 25867U 99040B 24233.97649026 .00000937 00000-0 00000-0 0 9996 2 25867 42.4946 148.4625 8822359 300.0007 0.9696 0.37803797 14803 ...Continue Reading

[TLELIST] Current TLEs

August 18th 2024 PST

HST 1 20580U 90037B 24230.51892889 .00013147 00000-0 60583-3 0 9996 2 20580 28.4690 293.9471 0002090 0.4204 359.6391 15.18751371686366 ISS (ZARYA) 1 25544U 98067A 24231.37347245 .00000858 00000-0 22800-4 0 9994 2 25544 51.6402 7.2502 0004503 221.0838 230.1155 15.50322272468196 CXO 1 25867U 99040B 24231.33207010 .00000981 00000-0 00000+0 0 9995 2 25867 42.4432 148.6491 8823807 299.9118 0.8698 0.37803568 25959 ...Continue Reading

[TLELIST] Current TLEs

August 17th 2024 PST

HST 1 20580U 90037B 24230.25607901 .00011730 00000-0 53976-3 0 9990 2 20580 28.4691 295.7107 0002097 356.4610 3.5967 15.18743872686580 ISS (ZARYA) 1 25544U 98067A 24230.39901051 .00024586 00000-0 43347-3 0 9998 2 25544 51.6409 12.0778 0005421 212.4335 196.5738 15.50247323468047 CXO 1 25867U 99040B 24231.33207010 .00000981 00000-0 00000+0 0 9995 2 25867 42.4432 148.6491 8823807 299.9118 0.8698 0.37803568 25959 ...Continue Reading
  • This mailing list is a public mailing list - anyone may join or leave, at any time.
  • This mailing list is announce-only.

International Space Station (ISS) / Hubble Space Telescope (HST) / Chandra X-Ray Observatory Orbital Data via EMAIL

Privacy Policy:

Private list